Time,TemperatureF,DewpointF,PressureIn,WindDirection,WindDirectionDegrees,WindSpeedMPH,WindSpeedGustMPH,Humidity,HourlyPrecipIn,Conditions,Clouds,dailyrainin,SoftwareType,DateUTC
2013-06-05 00:00:00,80.4,68.5,29.64,North,0,0.0,0.0,67,0.00,CLR,,0.00,WeatherDisplay:10.37,2013-06-05 05:00:00,
2013-06-05 00:05:00,80.4,68.5,29.64,North,0,0.0,0.0,67,0.00,CLR,,0.00,WeatherDisplay:10.37,2013-06-05 05:05:00,
2013-06-05 00:10:00,80.2,68.3,29.64,North,0,0.0,0.0,67,0.00,CLR,,0.00,WeatherDisplay:10.37,2013-06-05 05:10:00,
2013-06-05 00:15:00,80.2,68.7,29.64,North,0,0.0,0.0,68,0.00,CLR,,0.00,WeatherDisplay:10.37,2013-06-05 05:15:00,
2013-06-05 00:20:00,80.2,68.7,29.64,North,0,0.0,0.0,68,0.00,CLR,,0.00,WeatherDisplay:10.37,2013-06-05 05:20:00,
2013-06-05 00:25:00,80.1,68.5,29.64,North,0,0.0,0.0,68,0.00,CLR,,0.00,WeatherDisplay:10.37,2013-06-05 05:25:00,
2013-06-05 00:30:00,79.9,68.4,29.64,North,0,0.0,0.0,68,0.00,CLR,,0.00,WeatherDisplay:10.37,2013-06-05 05:30:00,
2013-06-05 00:35:00,79.9,68.4,29.64,North,0,0.0,0.0,68,0.00,CLR,,0.00,WeatherDisplay:10.37,2013-06-05 05:35:00,
2013-06-05 00:40:00,79.7,68.2,29.63,North,0,0.0,0.0,68,0.00,CLR,,0.00,WeatherDisplay:10.37,2013-06-05 05:40:00,
2013-06-05 00:45:00,79.5,68.0,29.64,North,0,0.0,0.0,68,0.00,CLR,,0.00,WeatherDisplay:10.37,2013-06-05 05:45:00,
2013-06-05 00:50:00,79.5,68.5,29.63,North,0,0.0,0.0,69,0.00,CLR,,0.00,WeatherDisplay:10.37,2013-06-05 05:50:00,
2013-06-05 00:55:00,79.3,68.3,29.63,North,0,0.0,0.0,69,0.00,CLR,,0.00,WeatherDisplay:10.37,2013-06-05 05:55:00,
2013-06-05 01:00:00,79.2,68.1,29.62,North,0,0.0,0.0,69,0.00,CLR,,0.00,WeatherDisplay:10.37,2013-06-05 06:00:00,
2013-06-05 01:05:00,79.2,68.5,29.62,North,0,0.0,0.0,70,0.00,CLR,,0.00,WeatherDisplay:10.37,2013-06-05 06:05:00,
2013-06-05 01:10:00,78.8,68.2,29.62,North,0,0.0,0.0,70,0.00,CLR,,0.00,WeatherDisplay:10.37,2013-06-05 06:10:00,
2013-06-05 01:15:00,78.8,68.2,29.62,North,0,0.0,0.0,70,0.00,CLR,,0.00,WeatherDisplay:10.37,2013-06-05 06:15:00,
2013-06-05 01:20:00,78.6,68.0,29.62,North,0,0.0,0.0,70,0.00,CLR,,0.00,WeatherDisplay:10.37,2013-06-05 06:20:00,
2013-06-05 01:25:00,78.4,67.8,29.62,North,0,0.0,0.0,70,0.00,CLR,,0.00,WeatherDisplay:10.37,2013-06-05 06:25:00,
2013-06-05 01:30:00,78.3,68.1,29.62,North,0,0.0,0.0,71,0.00,CLR,,0.00,WeatherDisplay:10.37,2013-06-05 06:30:00,
2013-06-05 01:35:00,78.1,67.9,29.62,North,0,0.0,0.0,71,0.00,CLR,,0.00,WeatherDisplay:10.37,2013-06-05 06:35:00,
2013-06-05 01:41:00,78.1,68.3,29.62,North,0,0.0,0.0,72,0.00,CLR,,0.00,WeatherDisplay:10.37,2013-06-05 06:41:00,
2013-06-05 01:46:00,77.9,67.7,29.62,North,0,0.0,0.0,71,0.00,CLR,,0.00,WeatherDisplay:10.37,2013-06-05 06:46:00,
2013-06-05 01:51:00,77.9,68.1,29.61,North,0,0.0,0.0,72,0.00,CLR,,0.00,WeatherDisplay:10.37,2013-06-05 06:51:00,
2013-06-05 01:56:00,77.7,68.0,29.61,North,0,0.0,0.0,72,0.00,CLR,,0.00,WeatherDisplay:10.37,2013-06-05 06:56:00,
2013-06-05 02:01:00,77.5,67.8,29.61,North,0,0.0,0.0,72,0.00,CLR,,0.00,WeatherDisplay:10.37,2013-06-05 07:01:00,
2013-06-05 02:06:00,77.5,67.8,29.61,North,0,0.0,0.0,72,0.00,CLR,,0.00,WeatherDisplay:10.37,2013-06-05 07:06:00,
2013-06-05 02:11:00,77.4,67.6,29.60,North,0,0.0,0.0,72,0.00,CLR,,0.00,WeatherDisplay:10.37,2013-06-05 07:11:00,
2013-06-05 02:16:00,77.4,67.6,29.60,North,0,0.0,0.0,72,0.00,CLR,,0.00,WeatherDisplay:10.37,2013-06-05 07:16:00,
2013-06-05 02:21:00,77.4,68.0,29.60,North,0,0.0,0.0,73,0.00,CLR,,0.00,WeatherDisplay:10.37,2013-06-05 07:21:00,
2013-06-05 02:26:00,77.4,68.0,29.61,North,0,0.0,0.0,73,0.00,CLR,,0.00,WeatherDisplay:10.37,2013-06-05 07:26:00,
2013-06-05 02:31:00,77.4,68.0,29.61,North,0,0.0,0.0,73,0.00,CLR,,0.00,WeatherDisplay:10.37,2013-06-05 07:31:00,
2013-06-05 02:36:00,77.2,67.9,29.60,North,0,0.0,0.0,73,0.00,CLR,,0.00,WeatherDisplay:10.37,2013-06-05 07:36:00,
2013-06-05 02:41:00,77.2,67.9,29.60,North,0,0.0,0.0,73,0.00,CLR,,0.00,WeatherDisplay:10.37,2013-06-05 07:41:00,
2013-06-05 02:46:00,77.0,67.7,29.60,North,0,0.0,0.0,73,0.00,CLR,,0.00,WeatherDisplay:10.37,2013-06-05 07:46:00,
2013-06-05 02:51:00,77.0,67.7,29.60,North,0,0.0,0.0,73,0.00,CLR,,0.00,WeatherDisplay:10.37,2013-06-05 07:51:00,
2013-06-05 02:57:00,76.8,67.9,29.60,North,0,0.0,0.0,74,0.00,CLR,,0.00,WeatherDisplay:10.37,2013-06-05 07:57:00,
2013-06-05 03:02:00,76.6,67.7,29.60,North,0,0.0,0.0,74,0.00,CLR,,0.00,WeatherDisplay:10.37,2013-06-05 08:02:00,
2013-06-05 03:07:00,76.5,67.9,29.59,North,0,0.0,0.0,75,0.00,CLR,,0.00,WeatherDisplay:10.37,2013-06-05 08:07:00,
2013-06-05 03:12:00,76.3,67.8,29.59,North,0,0.0,0.0,75,0.00,CLR,,0.00,WeatherDisplay:10.37,2013-06-05 08:12:00,
2013-06-05 03:17:00,76.1,67.6,29.58,North,0,0.0,0.0,75,0.00,CLR,,0.00,WeatherDisplay:10.37,2013-06-05 08:17:00,
2013-06-05 03:22:00,75.9,67.4,29.58,North,0,0.0,0.0,75,0.00,CLR,,0.00,WeatherDisplay:10.37,2013-06-05 08:22:00,
2013-06-05 03:27:00,75.9,67.4,29.58,North,0,0.0,0.0,75,0.00,CLR,,0.00,WeatherDisplay:10.37,2013-06-05 08:27:00,
2013-06-05 03:32:00,75.9,67.4,29.58,North,0,0.0,0.0,75,0.00,CLR,,0.00,WeatherDisplay:10.37,2013-06-05 08:32:00,
2013-06-05 03:37:00,75.9,67.4,29.58,North,0,0.0,0.0,75,0.00,CLR,,0.00,WeatherDisplay:10.37,2013-06-05 08:37:00,
2013-06-05 03:42:00,75.9,67.4,29.58,North,0,0.0,0.0,75,0.00,CLR,,0.00,WeatherDisplay:10.37,2013-06-05 08:42:00,
2013-06-05 03:47:00,75.9,67.4,29.59,North,0,0.0,0.0,75,0.00,CLR,,0.00,WeatherDisplay:10.37,2013-06-05 08:47:00,
2013-06-05 03:52:00,75.9,67.4,29.59,North,0,0.0,0.0,75,0.00,CLR,,0.00,WeatherDisplay:10.37,2013-06-05 08:52:00,
2013-06-05 03:57:00,75.9,67.4,29.59,North,0,0.0,0.0,75,0.00,CLR,,0.00,WeatherDisplay:10.37,2013-06-05 08:57:00,
2013-06-05 04:02:00,75.9,67.4,29.59,North,0,0.0,0.0,75,0.00,CLR,,0.00,WeatherDisplay:10.37,2013-06-05 09:02:00,
2013-06-05 04:07:00,75.7,67.2,29.59,North,0,0.0,0.0,75,0.00,CLR,,0.00,WeatherDisplay:10.37,2013-06-05 09:07:00,
2013-06-05 04:12:00,75.6,67.5,29.59,North,0,0.0,0.0,76,0.00,CLR,,0.00,WeatherDisplay:10.37,2013-06-05 09:12:00,
2013-06-05 04:17:00,75.6,67.5,29.59,North,0,0.0,0.0,76,0.00,CLR,,0.00,WeatherDisplay:10.37,2013-06-05 09:17:00,
2013-06-05 04:22:00,75.4,67.3,29.59,North,0,0.0,0.0,76,0.00,CLR,,0.00,WeatherDisplay:10.37,2013-06-05 09:22:00,
2013-06-05 04:27:00,75.4,67.3,29.59,North,0,0.0,0.0,76,0.00,CLR,,0.00,WeatherDisplay:10.37,2013-06-05 09:27:00,
2013-06-05 04:32:00,75.4,67.3,29.59,North,0,0.0,0.0,76,0.00,CLR,,0.00,WeatherDisplay:10.37,2013-06-05 09:32:00,
2013-06-05 04:37:00,75.2,67.5,29.60,North,0,0.0,0.0,77,0.00,CLR,,0.00,WeatherDisplay:10.37,2013-06-05 09:37:00,
2013-06-05 04:42:00,75.2,67.5,29.60,North,0,0.0,0.0,77,0.00,CLR,,0.00,WeatherDisplay:10.37,2013-06-05 09:42:00,
2013-06-05 04:47:00,75.2,67.5,29.61,North,0,0.0,0.0,77,0.00,CLR,,0.00,WeatherDisplay:10.37,2013-06-05 09:47:00,
2013-06-05 04:52:00,75.2,67.5,29.61,North,0,0.0,0.0,77,0.00,CLR,,0.00,WeatherDisplay:10.37,2013-06-05 09:52:00,
2013-06-05 04:57:00,75.2,67.1,29.61,North,0,0.0,0.0,76,0.00,CLR,,0.00,WeatherDisplay:10.37,2013-06-05 09:57:00,
2013-06-05 05:02:00,75.2,67.1,29.61,North,0,0.0,0.0,76,0.00,CLR,,0.00,WeatherDisplay:10.37,2013-06-05 10:02:00,
2013-06-05 05:07:00,75.2,67.1,29.61,North,0,0.0,0.0,76,0.00,CLR,,0.00,WeatherDisplay:10.37,2013-06-05 10:07:00,
2013-06-05 05:12:00,75.2,67.1,29.62,North,0,0.0,0.0,76,0.00,CLR,,0.00,WeatherDisplay:10.37,2013-06-05 10:12:00,
2013-06-05 05:17:00,75.0,66.9,29.62,North,0,0.0,0.0,76,0.00,CLR,,0.00,WeatherDisplay:10.37,2013-06-05 10:17:00,
2013-06-05 05:22:00,75.0,66.9,29.62,North,0,0.0,0.0,76,0.00,CLR,,0.00,WeatherDisplay:10.37,2013-06-05 10:22:00,
2013-06-05 05:27:00,74.8,67.1,29.62,North,0,0.0,0.0,77,0.00,CLR,,0.00,WeatherDisplay:10.37,2013-06-05 10:27:00,
2013-06-05 05:32:00,74.7,67.0,29.63,North,0,0.0,0.0,77,0.00,CLR,,0.00,WeatherDisplay:10.37,2013-06-05 10:32:00,
2013-06-05 05:37:00,74.7,67.0,29.63,North,0,0.0,0.0,77,0.00,CLR,,0.00,WeatherDisplay:10.37,2013-06-05 10:37:00,
2013-06-05 05:42:00,74.5,66.8,29.64,North,0,0.0,0.0,77,0.00,CLR,,0.00,WeatherDisplay:10.37,2013-06-05 10:42:00,
2013-06-05 05:47:00,74.3,67.0,29.64,North,0,0.0,0.0,78,0.00,CLR,,0.00,WeatherDisplay:10.37,2013-06-05 10:47:00,
2013-06-05 05:52:00,73.9,66.6,29.65,North,0,0.0,0.0,78,0.00,CLR,,0.00,WeatherDisplay:10.37,2013-06-05 10:52:00,
2013-06-05 05:57:00,73.8,66.8,29.65,North,0,0.0,0.0,79,0.00,CLR,,0.00,WeatherDisplay:10.37,2013-06-05 10:57:00,
2013-06-05 06:02:00,73.4,66.9,29.65,North,0,0.0,0.0,80,0.00,SCT,,0.00,WeatherDisplay:10.37,2013-06-05 11:02:00,
2013-06-05 06:07:00,73.2,66.7,29.65,North,0,0.0,0.0,80,0.00,SCT,,0.00,WeatherDisplay:10.37,2013-06-05 11:07:00,
2013-06-05 06:12:00,73.0,66.9,29.65,North,0,0.0,0.0,81,0.00,SCT,,0.00,WeatherDisplay:10.37,2013-06-05 11:12:00,
2013-06-05 06:17:00,73.0,66.9,29.65,North,0,0.0,0.0,81,0.00,SCT,,0.00,WeatherDisplay:10.37,2013-06-05 11:17:00,
2013-06-05 06:22:00,72.9,66.7,29.66,North,0,0.0,0.0,81,0.00,SCT,,0.00,WeatherDisplay:10.37,2013-06-05 11:22:00,
2013-06-05 06:27:00,73.0,66.9,29.66,North,0,0.0,0.0,81,0.00,SCT,,0.00,WeatherDisplay:10.37,2013-06-05 11:27:00,
2013-06-05 06:32:00,73.0,66.9,29.66,North,0,0.0,0.0,81,0.00,SCT,,0.00,WeatherDisplay:10.37,2013-06-05 11:32:00,
2013-06-05 06:37:00,73.0,66.9,29.66,North,0,0.0,0.0,81,0.00,SCT,,0.00,WeatherDisplay:10.37,2013-06-05 11:37:00,
2013-06-05 06:42:00,73.2,66.7,29.66,North,0,0.0,0.0,80,0.00,SCT,,0.00,WeatherDisplay:10.37,2013-06-05 11:42:00,
2013-06-05 06:47:00,73.0,66.9,29.67,North,0,0.0,0.0,81,0.00,SCT,,0.00,WeatherDisplay:10.37,2013-06-05 11:47:00,
2013-06-05 06:52:00,72.9,66.7,29.66,North,0,0.0,0.0,81,0.00,SCT,,0.00,WeatherDisplay:10.37,2013-06-05 11:52:00,
2013-06-05 06:57:00,72.5,66.3,29.66,North,0,0.0,0.0,81,0.00,SCT,,0.00,WeatherDisplay:10.37,2013-06-05 11:57:00,
2013-06-05 07:02:00,72.5,66.3,29.66,North,0,0.0,0.0,81,0.00,SCT,,0.00,WeatherDisplay:10.37,2013-06-05 12:02:00,
2013-06-05 07:07:00,72.5,66.3,29.66,North,0,0.0,0.0,81,0.00,SCT,,0.00,WeatherDisplay:10.37,2013-06-05 12:07:00,
2013-06-05 07:12:00,72.7,66.9,29.66,North,0,0.0,0.0,82,0.00,SCT,,0.00,WeatherDisplay:10.37,2013-06-05 12:12:00,
2013-06-05 07:17:00,72.7,66.9,29.66,North,0,0.0,0.0,82,0.00,SCT,,0.00,WeatherDisplay:10.37,2013-06-05 12:17:00,
2013-06-05 07:22:00,73.0,67.2,29.67,North,0,0.0,0.0,82,0.00,SCT,,0.00,WeatherDisplay:10.37,2013-06-05 12:22:00,
2013-06-05 07:27:00,73.0,67.2,29.67,North,0,0.0,0.0,82,0.00,SCT,,0.00,WeatherDisplay:10.37,2013-06-05 12:27:00,
2013-06-05 07:32:00,73.2,67.4,29.66,North,0,0.0,0.0,82,0.00,SCT,,0.00,WeatherDisplay:10.37,2013-06-05 12:32:00,
2013-06-05 07:37:00,73.4,67.6,29.66,North,0,0.0,0.0,82,0.00,SCT,,0.00,WeatherDisplay:10.37,2013-06-05 12:37:00,
2013-06-05 07:42:00,73.4,67.6,29.66,North,0,0.0,0.0,82,0.00,SCT,,0.00,WeatherDisplay:10.37,2013-06-05 12:42:00,
2013-06-05 07:47:00,73.6,67.7,29.66,North,0,0.0,0.0,82,0.00,SCT,,0.00,WeatherDisplay:10.37,2013-06-05 12:47:00,
2013-06-05 07:52:00,73.8,67.9,29.65,North,0,0.0,0.0,82,0.00,SCT,,0.00,WeatherDisplay:10.37,2013-06-05 12:52:00,
2013-06-05 07:57:00,73.8,67.9,29.65,North,0,0.0,0.0,82,0.00,SCT,,0.00,WeatherDisplay:10.37,2013-06-05 12:57:00,
2013-06-05 08:02:00,73.9,68.4,29.65,North,0,0.0,0.0,83,0.00,CLR,,0.00,WeatherDisplay:10.37,2013-06-05 13:02:00,
2013-06-05 08:07:00,74.1,68.6,29.65,North,0,0.0,0.0,83,0.00,CLR,,0.00,WeatherDisplay:10.37,2013-06-05 13:07:00,
2013-06-05 08:12:00,74.3,68.4,29.66,North,0,0.0,0.0,82,0.00,CLR,,0.00,WeatherDisplay:10.37,2013-06-05 13:12:00,
2013-06-05 08:18:00,74.5,68.6,29.66,North,0,0.0,0.0,82,0.00,CLR,,0.00,WeatherDisplay:10.37,2013-06-05 13:18:00,
2013-06-05 08:23:00,74.7,68.8,29.66,North,0,0.0,0.0,82,0.00,CLR,,0.00,WeatherDisplay:10.37,2013-06-05 13:23:00,
2013-06-05 08:28:00,75.2,69.7,29.65,North,0,0.0,0.0,83,0.00,CLR,,0.00,WeatherDisplay:10.37,2013-06-05 13:28:00,
2013-06-05 08:33:00,75.6,69.7,29.65,North,0,0.0,0.0,82,0.00,CLR,,0.00,WeatherDisplay:10.37,2013-06-05 13:33:00,
2013-06-05 08:38:00,75.9,69.7,29.65,North,0,0.0,0.0,81,0.00,CLR,,0.00,WeatherDisplay:10.37,2013-06-05 13:38:00,
2013-06-05 08:43:00,76.3,70.0,29.65,North,0,0.0,0.0,81,0.00,CLR,,0.00,WeatherDisplay:10.37,2013-06-05 13:43:00,
2013-06-05 08:48:00,76.6,69.6,29.66,North,0,0.0,0.0,79,0.00,CLR,,0.00,WeatherDisplay:10.37,2013-06-05 13:48:00,
2013-06-05 08:53:00,77.2,70.2,29.66,North,0,0.0,0.0,79,0.00,CLR,,0.00,WeatherDisplay:10.37,2013-06-05 13:53:00,
2013-06-05 08:58:00,77.5,70.1,29.67,North,0,0.0,0.0,78,0.00,CLR,,0.00,WeatherDisplay:10.37,2013-06-05 13:58:00,
2013-06-05 09:03:00,77.7,69.9,29.67,North,0,0.0,0.0,77,0.00,BKN,,0.00,WeatherDisplay:10.37,2013-06-05 14:03:00,
2013-06-05 09:08:00,77.9,69.7,29.67,North,0,0.0,0.0,76,0.00,BKN,,0.00,WeatherDisplay:10.37,2013-06-05 14:08:00,
2013-06-05 09:13:00,77.9,69.7,29.67,North,0,0.0,0.0,76,0.00,BKN,,0.00,WeatherDisplay:10.37,2013-06-05 14:13:00,
2013-06-05 09:18:00,77.9,69.3,29.67,North,0,0.0,0.0,75,0.00,BKN,,0.00,WeatherDisplay:10.37,2013-06-05 14:18:00,
2013-06-05 09:23:00,77.9,69.3,29.69,North,0,0.0,0.0,75,0.00,BKN,,0.00,WeatherDisplay:10.37,2013-06-05 14:23:00,
2013-06-05 09:28:00,77.9,69.3,29.72,North,0,0.0,0.0,75,0.00,BKN,,0.00,WeatherDisplay:10.37,2013-06-05 14:28:00,
2013-06-05 09:33:00,77.7,69.2,29.72,North,0,0.0,0.0,75,0.00,BKN,,0.00,WeatherDisplay:10.37,2013-06-05 14:33:00,
2013-06-05 09:38:00,77.5,69.4,29.73,North,0,0.0,0.0,76,0.00,BKN,,0.00,WeatherDisplay:10.37,2013-06-05 14:38:00,
2013-06-05 09:43:00,77.7,69.5,29.73,North,0,0.0,0.0,76,0.00,BKN,,0.00,WeatherDisplay:10.37,2013-06-05 14:43:00,
2013-06-05 09:48:00,77.7,69.5,29.72,North,0,0.0,0.0,76,0.00,BKN,,0.00,WeatherDisplay:10.37,2013-06-05 14:48:00,
2013-06-05 09:53:00,77.9,69.7,29.71,North,0,0.0,0.0,76,0.00,BKN,,0.00,WeatherDisplay:10.37,2013-06-05 14:53:00,
2013-06-05 09:58:00,77.9,69.7,29.72,North,0,0.0,0.0,76,0.00,BKN,,0.00,WeatherDisplay:10.37,2013-06-05 14:58:00,
2013-06-05 10:03:00,77.7,69.9,29.71,North,0,0.0,0.0,77,0.00,-RA,,0.00,WeatherDisplay:10.37,2013-06-05 15:03:00,
2013-06-05 10:08:00,77.7,69.9,29.70,North,0,0.0,0.0,77,0.00,-RA,,0.00,WeatherDisplay:10.37,2013-06-05 15:08:00,
2013-06-05 10:13:00,77.9,70.5,29.71,North,0,0.0,0.0,78,0.00,-RA,,0.00,WeatherDisplay:10.37,2013-06-05 15:13:00,
2013-06-05 10:18:00,78.1,70.7,29.70,North,0,0.0,0.0,78,0.00,-RA,,0.00,WeatherDisplay:10.37,2013-06-05 15:18:00,
2013-06-05 10:23:00,78.8,71.4,29.69,North,0,0.0,0.0,78,0.00,-RA,,0.00,WeatherDisplay:10.37,2013-06-05 15:23:00,
2013-06-05 10:28:00,79.2,70.9,29.69,North,0,0.0,0.0,76,0.00,-RA,,0.00,WeatherDisplay:10.37,2013-06-05 15:28:00,
2013-06-05 10:33:00,79.5,71.3,29.69,North,0,0.0,0.0,76,0.00,-RA,,0.00,WeatherDisplay:10.37,2013-06-05 15:33:00,
2013-06-05 10:38:00,79.9,71.2,29.69,North,0,0.0,0.0,75,0.00,-RA,,0.00,WeatherDisplay:10.37,2013-06-05 15:38:00,
2013-06-05 10:43:00,80.2,70.8,29.70,North,0,0.0,0.0,73,0.00,-RA,,0.00,WeatherDisplay:10.37,2013-06-05 15:43:00,
2013-06-05 10:48:00,80.1,70.2,29.69,North,0,0.0,0.0,72,0.00,-RA,,0.00,WeatherDisplay:10.37,2013-06-05 15:48:00,
2013-06-05 10:53:00,79.7,69.5,29.70,North,0,0.0,0.0,71,0.00,-RA,,0.00,WeatherDisplay:10.37,2013-06-05 15:53:00,
2013-06-05 10:58:00,79.5,69.7,29.70,North,0,0.0,0.0,72,0.00,-RA,,0.00,WeatherDisplay:10.37,2013-06-05 15:58:00,
2013-06-05 11:03:00,79.5,70.1,29.69,North,0,0.0,0.0,73,0.00,CLR,,0.00,WeatherDisplay:10.37,2013-06-05 16:03:00,
2013-06-05 11:08:00,79.5,70.1,29.69,North,0,0.0,0.0,73,0.00,CLR,,0.00,WeatherDisplay:10.37,2013-06-05 16:08:00,
2013-06-05 11:13:00,79.7,70.3,29.69,North,0,0.0,0.0,73,0.00,CLR,,0.00,WeatherDisplay:10.37,2013-06-05 16:13:00,
2013-06-05 11:18:00,79.9,70.0,29.68,North,0,0.0,0.0,72,0.00,CLR,,0.00,WeatherDisplay:10.37,2013-06-05 16:18:00,
2013-06-05 11:23:00,80.1,69.8,29.69,North,0,0.0,0.0,71,0.00,CLR,,0.00,WeatherDisplay:10.37,2013-06-05 16:23:00,
2013-06-05 11:28:00,80.2,70.0,29.69,North,0,0.0,0.0,71,0.00,CLR,,0.00,WeatherDisplay:10.37,2013-06-05 16:28:00,
2013-06-05 11:33:00,80.4,70.2,29.69,North,0,0.0,0.0,71,0.00,CLR,,0.00,WeatherDisplay:10.37,2013-06-05 16:33:00,
2013-06-05 11:38:00,80.4,70.2,29.68,North,0,0.0,0.0,71,0.00,CLR,,0.00,WeatherDisplay:10.37,2013-06-05 16:38:00,
2013-06-05 11:43:00,80.4,70.2,29.69,North,0,0.0,0.0,71,0.00,CLR,,0.00,WeatherDisplay:10.37,2013-06-05 16:43:00,
2013-06-05 11:48:00,80.4,70.6,29.70,North,0,0.0,0.0,72,0.00,CLR,,0.00,WeatherDisplay:10.37,2013-06-05 16:48:00,
2013-06-05 11:53:00,80.6,70.7,29.69,North,0,0.0,0.0,72,0.00,CLR,,0.00,WeatherDisplay:10.37,2013-06-05 16:53:00,
2013-06-05 11:58:00,81.0,71.1,29.69,North,0,0.0,0.0,72,0.00,CLR,,0.00,WeatherDisplay:10.37,2013-06-05 16:58:00,
2013-06-05 12:03:00,81.5,71.2,29.69,North,0,0.0,0.0,71,0.00,CLR,,0.00,WeatherDisplay:10.37,2013-06-05 17:03:00,
2013-06-05 12:08:00,82.0,71.3,29.69,North,0,0.0,0.0,70,0.00,CLR,,0.00,WeatherDisplay:10.37,2013-06-05 17:08:00,
2013-06-05 12:13:00,82.0,71.3,29.69,North,0,0.0,0.0,70,0.00,CLR,,0.00,WeatherDisplay:10.37,2013-06-05 17:13:00,
2013-06-05 12:18:00,82.4,72.0,29.69,North,0,0.0,0.0,71,0.00,CLR,,0.00,WeatherDisplay:10.37,2013-06-05 17:18:00,
2013-06-05 12:23:00,82.8,72.0,29.69,North,0,0.0,0.0,70,0.00,CLR,,0.00,WeatherDisplay:10.37,2013-06-05 17:23:00,
2013-06-05 12:28:00,83.3,72.5,29.70,North,0,0.0,0.0,70,0.00,CLR,,0.00,WeatherDisplay:10.37,2013-06-05 17:28:00,
2013-06-05 12:33:00,83.8,72.6,29.70,North,0,0.0,0.0,69,0.00,CLR,,0.00,WeatherDisplay:10.37,2013-06-05 17:33:00,
2013-06-05 12:38:00,84.0,71.9,29.70,North,0,0.0,0.0,67,0.00,CLR,,0.00,WeatherDisplay:10.37,2013-06-05 17:38:00,
2013-06-05 12:43:00,83.8,71.7,29.70,North,0,0.0,0.0,67,0.00,CLR,,0.00,WeatherDisplay:10.37,2013-06-05 17:43:00,
2013-06-05 12:48:00,83.8,71.7,29.69,North,0,0.0,0.0,67,0.00,CLR,,0.00,WeatherDisplay:10.37,2013-06-05 17:48:00,
2013-06-05 12:53:00,84.2,72.0,29.69,North,0,0.0,0.0,67,0.00,CLR,,0.00,WeatherDisplay:10.37,2013-06-05 17:53:00,
2013-06-05 12:58:00,84.6,72.4,29.68,North,0,0.0,0.0,67,0.00,CLR,,0.00,WeatherDisplay:10.37,2013-06-05 17:58:00,
2013-06-05 13:03:00,84.7,72.6,29.69,North,0,0.0,0.0,67,0.00,SCT,,0.00,WeatherDisplay:10.37,2013-06-05 18:03:00,
2013-06-05 13:08:00,85.1,72.5,29.68,North,0,0.0,0.0,66,0.00,SCT,,0.00,WeatherDisplay:10.37,2013-06-05 18:08:00,
2013-06-05 13:13:00,85.3,72.6,29.68,North,0,0.0,0.0,66,0.00,SCT,,0.00,WeatherDisplay:10.37,2013-06-05 18:13:00,
2013-06-05 13:18:00,85.5,72.3,29.68,North,0,0.0,0.0,65,0.00,SCT,,0.00,WeatherDisplay:10.37,2013-06-05 18:18:00,
2013-06-05 13:23:00,85.8,73.1,29.68,North,0,0.0,0.0,66,0.00,SCT,,0.00,WeatherDisplay:10.37,2013-06-05 18:23:00,
2013-06-05 13:28:00,86.2,73.0,29.68,North,0,0.0,0.0,65,0.00,SCT,,0.00,WeatherDisplay:10.37,2013-06-05 18:28:00,
2013-06-05 13:33:00,86.5,73.4,29.67,North,0,0.0,0.0,65,0.00,SCT,,0.00,WeatherDisplay:10.37,2013-06-05 18:33:00,
2013-06-05 13:38:00,86.7,73.5,29.67,North,0,0.0,0.0,65,0.00,SCT,,0.00,WeatherDisplay:10.37,2013-06-05 18:38:00,
2013-06-05 13:43:00,86.7,73.1,29.66,North,0,0.0,0.0,64,0.00,SCT,,0.00,WeatherDisplay:10.37,2013-06-05 18:43:00,
2013-06-05 13:48:00,86.7,73.1,29.65,North,0,0.0,0.0,64,0.00,SCT,,0.00,WeatherDisplay:10.37,2013-06-05 18:48:00,
2013-06-05 13:53:00,87.1,73.0,29.65,North,0,0.0,0.0,63,0.00,SCT,,0.00,WeatherDisplay:10.37,2013-06-05 18:53:00,
2013-06-05 13:59:00,87.3,73.1,29.64,North,0,0.0,0.0,63,0.00,SCT,,0.00,WeatherDisplay:10.37,2013-06-05 18:59:00,
2013-06-05 14:04:00,87.4,73.8,29.64,North,0,0.0,0.0,64,0.00,CLR,,0.00,WeatherDisplay:10.37,2013-06-05 19:04:00,
2013-06-05 14:09:00,87.8,74.1,29.64,North,0,0.0,0.0,64,0.00,CLR,,0.00,WeatherDisplay:10.37,2013-06-05 19:09:00,
2013-06-05 14:14:00,88.0,72.8,29.63,North,0,0.0,0.0,61,0.00,CLR,,0.00,WeatherDisplay:10.37,2013-06-05 19:14:00,
2013-06-05 14:19:00,88.0,72.4,29.63,North,0,0.0,0.0,60,0.00,CLR,,0.00,WeatherDisplay:10.37,2013-06-05 19:19:00,
2013-06-05 14:24:00,88.3,73.7,29.63,North,0,0.0,0.0,62,0.00,CLR,,0.00,WeatherDisplay:10.37,2013-06-05 19:24:00,
2013-06-05 14:29:00,88.7,73.5,29.62,North,0,0.0,0.0,61,0.00,CLR,,0.00,WeatherDisplay:10.37,2013-06-05 19:29:00,
2013-06-05 14:34:00,88.9,72.2,29.61,North,0,0.0,0.0,58,0.00,CLR,,0.00,WeatherDisplay:10.37,2013-06-05 19:34:00,
2013-06-05 14:39:00,89.1,71.3,29.61,North,0,0.0,0.0,56,0.00,CLR,,0.00,WeatherDisplay:10.37,2013-06-05 19:39:00,
2013-06-05 14:44:00,89.2,72.5,29.61,North,0,0.0,0.0,58,0.00,CLR,,0.00,WeatherDisplay:10.37,2013-06-05 19:44:00,
2013-06-05 14:49:00,89.6,72.3,29.61,North,0,0.0,0.0,57,0.00,CLR,,0.00,WeatherDisplay:10.37,2013-06-05 19:49:00,
2013-06-05 14:54:00,89.8,72.0,29.60,North,0,0.0,0.0,56,0.00,CLR,,0.00,WeatherDisplay:10.37,2013-06-05 19:54:00,
2013-06-05 14:59:00,89.8,70.9,29.60,North,0,0.0,0.0,54,0.00,CLR,,0.00,WeatherDisplay:10.37,2013-06-05 19:59:00,
2013-06-05 15:04:00,89.6,71.8,29.60,North,0,0.0,0.0,56,0.00,CLR,,0.00,WeatherDisplay:10.37,2013-06-05 20:04:00,
2013-06-05 15:09:00,89.6,71.3,29.59,North,0,0.0,0.0,55,0.00,CLR,,0.00,WeatherDisplay:10.37,2013-06-05 20:09:00,
2013-06-05 15:14:00,89.2,71.0,29.58,North,0,0.0,0.0,55,0.00,CLR,,0.00,WeatherDisplay:10.37,2013-06-05 20:14:00,
2013-06-05 15:19:00,89.1,70.8,29.56,North,0,0.0,0.0,55,0.00,CLR,,0.00,WeatherDisplay:10.37,2013-06-05 20:19:00,
2013-06-05 15:24:00,88.7,70.5,29.56,North,0,0.0,0.0,55,0.00,CLR,,0.00,WeatherDisplay:10.37,2013-06-05 20:24:00,
2013-06-05 15:29:00,88.3,70.7,29.56,North,0,0.0,0.0,56,0.00,CLR,,0.00,WeatherDisplay:10.37,2013-06-05 20:29:00,
2013-06-05 15:34:00,88.3,70.7,29.55,North,0,0.0,0.0,56,0.00,CLR,,0.00,WeatherDisplay:10.37,2013-06-05 20:34:00,
2013-06-05 15:39:00,88.0,69.8,29.54,North,0,0.0,0.0,55,0.00,CLR,,0.00,WeatherDisplay:10.37,2013-06-05 20:39:00,
2013-06-05 15:44:00,87.8,70.1,29.54,North,0,0.0,0.0,56,0.00,CLR,,0.00,WeatherDisplay:10.37,2013-06-05 20:44:00,
2013-06-05 15:49:00,87.8,70.7,29.53,North,0,0.0,0.0,57,0.00,CLR,,0.00,WeatherDisplay:10.37,2013-06-05 20:49:00,
2013-06-05 15:54:00,87.8,70.7,29.52,North,0,0.0,0.0,57,0.00,CLR,,0.00,WeatherDisplay:10.37,2013-06-05 20:54:00,
2013-06-05 15:59:00,87.8,70.7,29.52,North,0,0.0,0.0,57,0.00,CLR,,0.00,WeatherDisplay:10.37,2013-06-05 20:59:00,
2013-06-05 16:04:00,87.8,70.7,29.54,North,0,0.0,0.0,57,0.00,CLR,,0.00,WeatherDisplay:10.37,2013-06-05 21:04:00,
2013-06-05 16:09:00,88.2,71.5,29.55,North,0,0.0,0.0,58,0.00,CLR,,0.00,WeatherDisplay:10.37,2013-06-05 21:09:00,
2013-06-05 16:14:00,88.2,71.5,29.55,North,0,0.0,0.0,58,0.00,CLR,,0.00,WeatherDisplay:10.37,2013-06-05 21:14:00,
2013-06-05 16:19:00,88.2,71.5,29.55,North,0,0.0,0.0,58,0.00,CLR,,0.00,WeatherDisplay:10.37,2013-06-05 21:19:00,
2013-06-05 16:24:00,88.5,71.9,29.56,North,0,0.0,0.0,58,0.00,CLR,,0.00,WeatherDisplay:10.37,2013-06-05 21:24:00,
2013-06-05 16:29:00,88.9,72.2,29.56,North,0,0.0,0.0,58,0.00,CLR,,0.00,WeatherDisplay:10.37,2013-06-05 21:29:00,
2013-06-05 16:34:00,89.6,73.4,29.56,North,0,0.0,0.0,59,0.00,CLR,,0.00,WeatherDisplay:10.37,2013-06-05 21:34:00,
2013-06-05 16:39:00,90.7,73.9,29.56,North,0,0.0,0.0,58,0.00,CLR,,0.00,WeatherDisplay:10.37,2013-06-05 21:39:00,
2013-06-05 16:44:00,91.6,73.7,29.56,North,0,0.0,0.0,56,0.00,CLR,,0.00,WeatherDisplay:10.37,2013-06-05 21:44:00,
2013-06-05 16:49:00,92.1,73.6,29.56,North,0,0.0,0.0,55,0.00,CLR,,0.00,WeatherDisplay:10.37,2013-06-05 21:49:00,
2013-06-05 16:54:00,92.7,73.6,29.56,North,0,0.0,0.0,54,0.00,CLR,,0.00,WeatherDisplay:10.37,2013-06-05 21:54:00,
2013-06-05 16:59:00,93.2,72.4,29.56,North,0,0.0,0.0,51,0.00,CLR,,0.00,WeatherDisplay:10.37,2013-06-05 21:59:00,
2013-06-05 17:04:00,93.6,72.1,29.56,North,0,0.0,0.0,50,0.00,CLR,,0.00,WeatherDisplay:10.37,2013-06-05 22:04:00,
2013-06-05 17:09:00,93.4,70.1,29.56,North,0,0.0,0.0,47,0.00,CLR,,0.00,WeatherDisplay:10.37,2013-06-05 22:09:00,
2013-06-05 17:14:00,92.8,70.9,29.56,North,0,0.0,0.0,49,0.00,CLR,,0.00,WeatherDisplay:10.37,2013-06-05 22:14:00,
2013-06-05 17:19:00,92.8,71.5,29.56,North,0,0.0,0.0,50,0.00,CLR,,0.00,WeatherDisplay:10.37,2013-06-05 22:19:00,
2013-06-05 17:24:00,93.4,72.0,29.56,North,0,0.0,0.0,50,0.00,CLR,,0.00,WeatherDisplay:10.37,2013-06-05 22:24:00,
2013-06-05 17:29:00,93.6,71.5,29.56,North,0,0.0,0.0,49,0.00,CLR,,0.00,WeatherDisplay:10.37,2013-06-05 22:29:00,
2013-06-05 17:34:00,93.2,71.2,29.56,North,0,0.0,0.0,49,0.00,CLR,,0.00,WeatherDisplay:10.37,2013-06-05 22:34:00,
2013-06-05 17:39:00,93.2,71.2,29.56,North,0,0.0,0.0,49,0.00,CLR,,0.00,WeatherDisplay:10.37,2013-06-05 22:39:00,
2013-06-05 17:44:00,93.6,71.5,29.56,North,0,0.0,0.0,49,0.00,CLR,,0.00,WeatherDisplay:10.37,2013-06-05 22:44:00,
2013-06-05 17:50:00,94.3,72.8,29.56,North,0,0.0,0.0,50,0.00,CLR,,0.00,WeatherDisplay:10.37,2013-06-05 22:50:00,
2013-06-05 17:55:00,94.8,72.7,29.56,North,0,0.0,0.0,49,0.00,CLR,,0.00,WeatherDisplay:10.37,2013-06-05 22:55:00,
2013-06-05 18:00:00,94.8,71.4,29.56,North,0,0.0,0.0,47,0.00,CLR,,0.00,WeatherDisplay:10.37,2013-06-05 23:00:00,
2013-06-05 18:05:00,95.4,72.6,29.56,North,0,0.0,0.0,48,0.00,CLR,,0.00,WeatherDisplay:10.37,2013-06-05 23:05:00,
2013-06-05 18:10:00,95.7,72.3,29.56,North,0,0.0,0.0,47,0.00,CLR,,0.00,WeatherDisplay:10.37,2013-06-05 23:10:00,
2013-06-05 18:15:00,95.7,72.3,29.56,North,0,0.0,0.0,47,0.00,CLR,,0.00,WeatherDisplay:10.37,2013-06-05 23:15:00,
2013-06-05 18:20:00,95.5,71.5,29.56,North,0,0.0,0.0,46,0.00,CLR,,0.00,WeatherDisplay:10.37,2013-06-05 23:20:00,
2013-06-05 18:25:00,95.0,71.0,29.56,North,0,0.0,0.0,46,0.00,CLR,,0.00,WeatherDisplay:10.37,2013-06-05 23:25:00,
2013-06-05 18:30:00,94.6,71.3,29.56,North,0,0.0,0.0,47,0.00,CLR,,0.00,WeatherDisplay:10.37,2013-06-05 23:30:00,
2013-06-05 18:35:00,95.0,71.6,29.55,North,0,0.0,0.0,47,0.00,CLR,,0.00,WeatherDisplay:10.37,2013-06-05 23:35:00,
2013-06-05 18:40:00,95.2,70.5,29.55,North,0,0.0,0.0,45,0.00,CLR,,0.00,WeatherDisplay:10.37,2013-06-05 23:40:00,
2013-06-05 18:45:00,95.0,70.3,29.55,North,0,0.0,0.0,45,0.00,CLR,,0.00,WeatherDisplay:10.37,2013-06-05 23:45:00,
2013-06-05 18:50:00,95.0,71.0,29.55,North,0,0.0,0.0,46,0.00,CLR,,0.00,WeatherDisplay:10.37,2013-06-05 23:50:00,
2013-06-05 18:55:00,94.8,70.8,29.55,North,0,0.0,0.0,46,0.00,CLR,,0.00,WeatherDisplay:10.37,2013-06-05 23:55:00,
2013-06-05 19:00:00,94.6,70.6,29.55,North,0,0.0,0.0,46,0.00,CLR,,0.00,WeatherDisplay:10.37,2013-06-06 00:00:00,
2013-06-05 19:05:00,94.3,71.0,29.54,North,0,0.0,0.0,47,0.00,CLR,,0.00,WeatherDisplay:10.37,2013-06-06 00:05:00,
2013-06-05 19:10:00,93.6,70.9,29.54,North,0,0.0,0.0,48,0.00,CLR,,0.00,WeatherDisplay:10.37,2013-06-06 00:10:00,
2013-06-05 19:15:00,93.6,70.9,29.54,North,0,0.0,0.0,48,0.00,CLR,,0.00,WeatherDisplay:10.37,2013-06-06 00:15:00,
2013-06-05 19:20:00,93.6,70.9,29.54,North,0,0.0,0.0,48,0.00,CLR,,0.00,WeatherDisplay:10.37,2013-06-06 00:20:00,
2013-06-05 19:25:00,93.6,71.5,29.54,North,0,0.0,0.0,49,0.00,CLR,,0.00,WeatherDisplay:10.37,2013-06-06 00:25:00,
2013-06-05 19:30:00,93.7,71.1,29.54,North,0,0.0,0.0,48,0.00,CLR,,0.00,WeatherDisplay:10.37,2013-06-06 00:30:00,
2013-06-05 19:35:00,94.1,72.0,29.54,North,0,0.0,0.0,49,0.00,CLR,,0.00,WeatherDisplay:10.37,2013-06-06 00:35:00,
2013-06-05 19:40:00,94.1,71.4,29.54,North,0,0.0,0.0,48,0.00,CLR,,0.00,WeatherDisplay:10.37,2013-06-06 00:40:00,
2013-06-05 19:45:00,93.9,71.9,29.54,North,0,0.0,0.0,49,0.00,CLR,,0.00,WeatherDisplay:10.37,2013-06-06 00:45:00,
2013-06-05 19:50:00,93.9,71.9,29.54,North,0,0.0,0.0,49,0.00,CLR,,0.00,WeatherDisplay:10.37,2013-06-06 00:50:00,
2013-06-05 19:55:00,93.7,71.7,29.54,North,0,0.0,0.0,49,0.00,CLR,,0.00,WeatherDisplay:10.37,2013-06-06 00:55:00,
2013-06-05 20:00:00,93.4,72.0,29.54,North,0,0.0,0.0,50,0.00,CLR,,0.00,WeatherDisplay:10.37,2013-06-06 01:00:00,
2013-06-05 20:05:00,93.0,72.2,29.54,North,0,0.0,0.0,51,0.00,CLR,,0.00,WeatherDisplay:10.37,2013-06-06 01:05:00,
2013-06-05 20:10:00,92.7,71.9,29.54,North,0,0.0,0.0,51,0.00,CLR,,0.00,WeatherDisplay:10.37,2013-06-06 01:10:00,
2013-06-05 20:15:00,92.3,72.1,29.55,North,0,0.0,0.0,52,0.00,CLR,,0.00,WeatherDisplay:10.37,2013-06-06 01:15:00,
2013-06-05 20:20:00,91.6,72.0,29.55,North,0,0.0,0.0,53,0.00,CLR,,0.00,WeatherDisplay:10.37,2013-06-06 01:20:00,
2013-06-05 20:25:00,90.9,71.9,29.55,North,0,0.0,0.0,54,0.00,CLR,,0.00,WeatherDisplay:10.37,2013-06-06 01:25:00,
2013-06-05 20:30:00,90.3,72.0,29.55,North,0,0.0,0.0,55,0.00,CLR,,0.00,WeatherDisplay:10.37,2013-06-06 01:30:00,
2013-06-05 20:35:00,89.8,71.5,29.55,North,0,0.0,0.0,55,0.00,CLR,,0.00,WeatherDisplay:10.37,2013-06-06 01:35:00,
2013-06-05 20:40:00,89.2,71.5,29.55,North,0,0.0,0.0,56,0.00,CLR,,0.00,WeatherDisplay:10.37,2013-06-06 01:40:00,
2013-06-05 20:45:00,88.7,71.5,29.56,North,0,0.0,0.0,57,0.00,CLR,,0.00,WeatherDisplay:10.37,2013-06-06 01:45:00,
2013-06-05 20:50:00,88.2,71.0,29.56,North,0,0.0,0.0,57,0.00,CLR,,0.00,WeatherDisplay:10.37,2013-06-06 01:50:00,
2013-06-05 20:55:00,87.8,71.2,29.56,North,0,0.0,0.0,58,0.00,CLR,,0.00,WeatherDisplay:10.37,2013-06-06 01:55:00,
2013-06-05 21:00:00,87.4,70.8,29.56,North,0,0.0,0.0,58,0.00,CLR,,0.00,WeatherDisplay:10.37,2013-06-06 02:00:00,
2013-06-05 21:05:00,87.1,71.0,29.56,North,0,0.0,0.0,59,0.00,CLR,,0.00,WeatherDisplay:10.37,2013-06-06 02:05:00,
2013-06-05 21:10:00,86.9,70.8,29.56,North,0,0.0,0.0,59,0.00,CLR,,0.00,WeatherDisplay:10.37,2013-06-06 02:10:00,
2013-06-05 21:15:00,86.5,70.5,29.56,North,0,0.0,0.0,59,0.00,CLR,,0.00,WeatherDisplay:10.37,2013-06-06 02:15:00,
2013-06-05 21:20:00,86.2,70.7,29.56,North,0,0.0,0.0,60,0.00,CLR,,0.00,WeatherDisplay:10.37,2013-06-06 02:20:00,
2013-06-05 21:25:00,85.6,70.2,29.57,North,0,0.0,0.0,60,0.00,CLR,,0.00,WeatherDisplay:10.37,2013-06-06 02:25:00,
2013-06-05 21:30:00,85.5,70.5,29.57,North,0,0.0,0.0,61,0.00,CLR,,0.00,WeatherDisplay:10.37,2013-06-06 02:30:00,
2013-06-05 21:35:00,85.3,70.3,29.57,North,0,0.0,0.0,61,0.00,CLR,,0.00,WeatherDisplay:10.37,2013-06-06 02:35:00,
2013-06-05 21:40:00,84.9,70.4,29.58,North,0,0.0,0.0,62,0.00,CLR,,0.00,WeatherDisplay:10.37,2013-06-06 02:40:00,
2013-06-05 21:45:00,84.7,70.3,29.58,North,0,0.0,0.0,62,0.00,CLR,,0.00,WeatherDisplay:10.37,2013-06-06 02:45:00,
2013-06-05 21:50:00,84.6,70.6,29.58,North,0,0.0,0.0,63,0.00,CLR,,0.00,WeatherDisplay:10.37,2013-06-06 02:50:00,
2013-06-05 21:55:00,84.4,70.4,29.59,North,0,0.0,0.0,63,0.00,CLR,,0.00,WeatherDisplay:10.37,2013-06-06 02:55:00,
2013-06-05 22:00:00,84.2,70.2,29.59,North,0,0.0,0.0,63,0.00,CLR,,0.00,WeatherDisplay:10.37,2013-06-06 03:00:00,
2013-06-05 22:05:00,83.8,70.4,29.59,North,0,0.0,0.0,64,0.00,BKN,,0.00,WeatherDisplay:10.37,2013-06-06 03:05:00,
2013-06-05 22:10:00,83.8,70.4,29.59,North,0,0.0,0.0,64,0.00,BKN,,0.00,WeatherDisplay:10.37,2013-06-06 03:10:00,
2013-06-05 22:15:00,83.8,70.4,29.59,North,0,0.0,0.0,64,0.00,BKN,,0.00,WeatherDisplay:10.37,2013-06-06 03:15:00,
2013-06-05 22:20:00,83.8,70.4,29.59,North,0,0.0,0.0,64,0.00,BKN,,0.00,WeatherDisplay:10.37,2013-06-06 03:20:00,
2013-06-05 22:25:00,83.8,70.4,29.59,North,0,0.0,0.0,64,0.00,BKN,,0.00,WeatherDisplay:10.37,2013-06-06 03:25:00,
2013-06-05 22:31:00,83.7,70.6,29.60,North,0,0.0,0.0,65,0.00,BKN,,0.00,WeatherDisplay:10.37,2013-06-06 03:31:00,
2013-06-05 22:36:00,83.5,70.5,29.60,North,0,0.0,0.0,65,0.00,BKN,,0.00,WeatherDisplay:10.37,2013-06-06 03:36:00,
2013-06-05 22:41:00,83.1,70.1,29.60,North,0,0.0,0.0,65,0.00,BKN,,0.00,WeatherDisplay:10.37,2013-06-06 03:41:00,
2013-06-05 22:46:00,82.9,70.4,29.60,North,0,0.0,0.0,66,0.00,BKN,,0.00,WeatherDisplay:10.37,2013-06-06 03:46:00,
2013-06-05 22:51:00,82.8,70.2,29.60,North,0,0.0,0.0,66,0.00,BKN,,0.00,WeatherDisplay:10.37,2013-06-06 03:51:00,
2013-06-05 22:56:00,82.8,70.7,29.60,North,0,0.0,0.0,67,0.00,BKN,,0.00,WeatherDisplay:10.37,2013-06-06 03:56:00,
2013-06-05 23:01:00,82.6,70.1,29.60,North,0,0.0,0.0,66,0.00,BKN,,0.00,WeatherDisplay:10.37,2013-06-06 04:01:00,
2013-06-05 23:02:00,82.4,69.9,29.61,North,0,0.0,0.0,66,0.00,BKN,,0.00,WeatherDisplay:10.37,2013-06-06 04:02:00,
2013-06-05 23:03:00,82.6,70.1,29.61,North,0,0.0,0.0,66,0.00,BKN,,0.00,WeatherDisplay:10.37,2013-06-06 04:03:00,
2013-06-05 23:08:00,82.2,69.7,29.61,North,0,0.0,0.0,66,0.00,BKN,,0.00,WeatherDisplay:10.37,2013-06-06 04:08:00,
2013-06-05 23:13:00,82.0,69.6,29.61,North,0,0.0,0.0,66,0.00,BKN,,0.00,WeatherDisplay:10.37,2013-06-06 04:13:00,
2013-06-05 23:18:00,82.0,69.6,29.61,North,0,0.0,0.0,66,0.00,BKN,,0.00,WeatherDisplay:10.37,2013-06-06 04:18:00,
2013-06-05 23:23:00,82.0,69.6,29.61,North,0,0.0,0.0,66,0.00,BKN,,0.00,WeatherDisplay:10.37,2013-06-06 04:23:00,
2013-06-05 23:28:00,81.9,69.4,29.61,North,0,0.0,0.0,66,0.00,BKN,,0.00,WeatherDisplay:10.37,2013-06-06 04:28:00,
2013-06-05 23:33:00,81.9,69.4,29.61,North,0,0.0,0.0,66,0.00,BKN,,0.00,WeatherDisplay:10.37,2013-06-06 04:33:00,
2013-06-05 23:38:00,81.9,69.8,29.60,North,0,0.0,0.0,67,0.00,BKN,,0.00,WeatherDisplay:10.37,2013-06-06 04:38:00,
2013-06-05 23:43:00,81.7,69.7,29.60,North,0,0.0,0.0,67,0.00,BKN,,0.00,WeatherDisplay:10.37,2013-06-06 04:43:00,
2013-06-05 23:48:00,81.3,69.3,29.60,North,0,0.0,0.0,67,0.00,BKN,,0.00,WeatherDisplay:10.37,2013-06-06 04:48:00,
2013-06-05 23:53:00,81.1,69.6,29.60,North,0,0.0,0.0,68,0.00,BKN,,0.00,WeatherDisplay:10.37,2013-06-06 04:53:00,
2013-06-05 23:58:00,80.8,69.2,29.61,North,0,0.0,0.0,68,0.00,BKN,,0.00,WeatherDisplay:10.37,2013-06-06 04:58:00,